Home   Weather   Eidsvoll   Past weeks

Flag for Norway Past Weather in Eidsvoll, Norway — Yesterday and Last 2 Weeks

Now
48 °F

Rain. Partly cloudy.


Feels Like: 46 °F
Forecast: 46 / 55 °F
Wind: 6 mph from South

Location: Oslo Gardermoen Airport

Current Time: Sep 27, 2016 at 7:19:37 AM

Latest Report: Sep 27, 2016 at 6:50 AM


Visibility: N/A

Pressure: 30.21 "Hg

Humidity: 100%

Dew Point: 48 °F

Location of EidsvollLocation

Past Weather in Eidsvoll — Graph

°F

Eidsvoll Temperature Yesterday

Maximum temperature yesterday: 63 °F (at 3:20 PM)
Minimum temperature yesterday: 46 °F (at 11:20 PM)
Average temperature yesterday: 55 °F

High & Low Weather Summary for the Past Weeks

 TemperatureHumidityPressure
High72 °F (Sep 13, 3:20 PM)100% (Sep 13, 3:50 AM)30.24 "Hg (Sep 13, 3:50 AM)
Low39 °F (Sep 12, 5:50 AM)43% (Sep 19, 5:50 PM)29.92 "Hg (Sep 23, 4:50 PM)
Average56 °F83%30.13 "Hg
* Reported Sep 12 5:20 AM — Sep 27 5:50 AM, Eidsvoll, Weather by CustomWeather, © 2016

Note: Actual official high and low records may vary slightly from our data, if they occured in-between our weather recording intervals... More about our weather records

Advertising

Eidsvoll Weather History for the Previous 24 Hours

Scroll right to see more
 ConditionsComfort  
Time TempWeatherWind HumidityBarometerVisibility
5:50 AM
Tue, Sep 27
48 °FRain. Overcast.3 mph100%30.21 "Hg1 mi
5:20 AM48 °FFog.1 mph100%30.21 "Hg1 mi
4:50 AM48 °FFog.No wind94%30.21 "Hg1 mi
4:20 AM46 °FFog.No wind100%30.21 "Hg1 mi
3:50 AM46 °FFog.1 mph100%30.21 "Hg1 mi
3:20 AM46 °FSleet. Overcast.No wind93%30.21 "Hg1 mi
2:50 AM46 °FSleet. Overcast.2 mph93%30.21 "HgN/A
2:20 AM46 °FSleet. Overcast.No wind93%30.21 "HgN/A
1:50 AM45 °FQuite cool.1 mph93%30.21 "HgN/A
1:20 AM43 °FPassing clouds.No wind87%30.21 "HgN/A
12:50 AM45 °FPassing clouds.No wind93%30.21 "HgN/A
12:20 AM46 °FClear.No wind93%30.21 "Hg10 mi
11:50 PM
Mon, Sep 26
46 °FClear.No wind87%30.21 "Hg10 mi
11:20 PM46 °FClear.No wind93%30.21 "Hg10 mi
10:50 PM48 °FClear.1 mph82%30.18 "Hg10 mi
10:20 PM52 °FClear.5 mph72%30.18 "Hg10 mi
9:50 PM52 °FPassing clouds.5 mph72%30.18 "HgN/A
9:20 PM54 °FPassing clouds.3 mph72%30.18 "HgN/A
8:50 PM54 °FClear.7 mph72%30.18 "Hg10 mi
8:20 PM52 °FClear.No wind77%30.18 "Hg10 mi
7:50 PM55 °FClear.5 mph67%30.15 "Hg10 mi
7:20 PM57 °FClear.5 mph63%30.15 "Hg10 mi
6:50 PM57 °FSunny.2 mph67%30.15 "Hg10 mi
6:20 PM61 °FPassing clouds.7 mph59%30.15 "HgN/A
5:50 PM63 °FPassing clouds.9 mph59%30.15 "HgN/A
5:20 PM63 °FScattered clouds.12 mph59%30.15 "HgN/A
4:50 PM63 °FScattered clouds.13 mph59%30.12 "HgN/A
4:20 PM63 °FScattered clouds.12 mph68%30.12 "HgN/A
3:50 PM63 °FScattered clouds.9 mph73%30.12 "HgN/A
3:20 PM63 °FPartly sunny.6 mph77%30.12 "HgN/A
2:50 PM61 °FBroken clouds.6 mph83%30.12 "HgN/A
2:20 PM59 °FBroken clouds.6 mph88%30.12 "HgN/A
1:50 PM57 °FBroken clouds.6 mph94%30.12 "Hg5 mi
1:20 PM55 °FPartly sunny.6 mph94%30.12 "Hg6 mi
12:50 PM55 °FPartly sunny.8 mph94%30.09 "Hg4 mi
12:20 PM55 °FPartly sunny.6 mph94%30.09 "Hg4 mi
11:50 AM54 °FPartly sunny.7 mph94%30.09 "Hg6 mi
11:20 AM54 °FRain. Partly sunny.7 mph94%30.09 "Hg6 mi
10:50 AM54 °FRain. Partly sunny.6 mph94%30.09 "Hg6 mi
10:20 AM54 °FRain. Partly sunny.8 mph88%30.07 "Hg4 mi
9:50 AM54 °FPartly sunny.8 mph88%30.07 "HgN/A
9:20 AM54 °FPartly sunny.7 mph88%30.07 "HgN/A
8:50 AM54 °FPartly sunny.8 mph88%30.07 "HgN/A
8:20 AM54 °FPartly sunny.7 mph88%30.07 "HgN/A
7:50 AM54 °FPartly sunny.7 mph88%30.07 "HgN/A
7:20 AM54 °FPartly sunny.8 mph88%30.07 "HgN/A
Weather by CustomWeather, © 2016

See weather overviewHow to use our weather pages